Location: Del Amo
(33.8464°N, 118.2104°W)
Time: 07:54:02
(UTC+00:00)

Vanguard 1 Rocket - Pass Details

Date: 20 September 2024
Orbit: 650 x 4218 km, 34.3° (Epoch: 09 October)

Event Time Altitude Azimuth Distance (km) Brightness Sun altitude
Rises 18:41:45 0° 285° (WNW) 8,143 12.0 53.6°
Reaches altitude 10° 18:49:08 10° 273° (W) 7,350 11.9 54.3°
Maximum altitude 19:06:32 23° 231° (SW) 6,115 12.1 55.6°
Drops below altitude 10° 19:21:54 10° 186° (S) 6,333 12.4 56.3°
Sets 19:27:47 0° 173° (S) 6,820 12.4 56.5°
